Terminal Aerodrome Forecast
Issued by NWS

Home | Current Version | Previous Version | Graphics & Text | Print | Product List | Glossary On
Versions: 1 2 3 4 5 6 7 8 9 10 11 12 13 14 15 16
000
FTUS43 KGRB 041123
TAFCWA
TAF
KCWA 041123Z 0412/0512 28004KT P6SM SCT040 SCT070
     FM041500 30009KT P6SM BKN050 BKN070
     FM050000 VRB03KT P6SM SKC=

USA.gov is the U.S. government's official web portal to all federal, state and local government web resources and services.